Location: ??????
(33.3472°N, 35.4764°E)
Time: 16:45:45
(UTC+00:00)

Okean 3 Rocket - Pass Details

Date: 21 August 2019
Orbit: 616 x 644 km, 82.5° (Epoch: 16 October)

Event Time Altitude Azimuth Distance (km) Brightness Sun altitude
Rises 01:14:55 0° 349° (NNW) 2,894 7.3 -21.7°
Reaches altitude 10° 01:17:10 10° 345° (NNW) 1,987 6.3 -21.3°
Maximum altitude 01:21:29 59° 267° (W) 718 3.5 -20.6°
Enters shadow 01:22:07 53° 229° (SW) 768 3.6 -20.5°
